C/2024 F2 ( PanSTARRS )

Japanese version
Home page
Updated on September 4, 2024

---------------------------------------------------------------------

* Profile

Discovery Date March 21, 2024
Magnitude 21.0 mag
Discoverer Pan-STARRS 1 telescope (Haleakala)

* Pictures

* Orbital Elements

Epoch 2024 Oct. 17.0 TT = JDT 2460600.5
T 2024 July 29.12738 TT                                 Rudenko
q   3.9682680            (2000.0)            P               Q
n   0.03140653     Peri.  112.90886     -0.29411209     +0.94295290
a   9.9492293      Node   138.94590     -0.94064921     -0.25665657
e   0.6011482      Incl.   13.74109     -0.16934327     -0.21205478
P  31.4
>From 175 observations 2024 Mar. 21-Aug. 10, mean residual 0".4.

* Magnitudes Graph

        m1 = 10.5 + 5 log d + 10.0 log r

---------------------------------------------------------------------

The orbital elements are published on M.P.E.C. 2024-Q20.
The magnitudes graphs are made with Comet for Windows.

---------------------------------------------------------------------

Copyright(C) Seiichi Yoshida (comet@aerith.net). All rights reserved.